Terminal Aerodrome Forecast
Issued by NWS Upton, NY

Home | Current Version | Previous Version | Text Only | Print | Product List | Glossary On
Versions: 1 2 3 4 5 6 7 8 9 10 11 12 13 14 15 16 17 18 19 20 21 22 23 24 25
000
FTUS41 KOKX 231300 AAA
TAFBDR
TAF AMD
KBDR 231310Z 2313/2412 05008KT P6SM FEW020 BKN070
      TEMPO 2313/2316 BKN020 OVC070
     FM231600 11011KT P6SM FEW040 BKN080
     FM240100 07005KT P6SM SCT040
     FM240400 03005KT P6SM FEW040=

USA.gov is the U.S. government's official web portal to all federal, state and local government web resources and services.